This demonstration page uses our WeatherBlox Daily Observations layout. Learn more.

Hourly Observations for March 11, 2020

Temp ( °F °C ) Dew Point ( °F °C ) Humidity (%) Winds ( mph kmh ) Pressure ( in mb ) Visibility ( mi km ) Precip ( " mm )
12:15 am 00:15 Clear 41 4.8 38 3.2 90 90 WNW 3 6 30.13 1020 10 16.0934 0 0
12:35 am 00:35 Clear 40 4.2 38 3.1 93 93 Calm 30.13 1020 7 11.26538 0 0
12:55 am 00:55 Clear 40 4.5 38 3.6 94 94 W 3 6 30.12 1020 7 11.26538 0 0
1:15 am 01:15 Clear with Mist and Fog 37 2.7 35 1.8 94 94 W 3 6 30.13 1020 4 6.43736 0 0
1:35 am 01:35 Clear 39 4 38 3.2 95 95 W 3 6 30.11 1020 7 11.26538 0 0
1:55 am 01:55 Clear with Mist and Fog 37 2.5 35 1.9 96 96 NW 5 7 30.12 1020 5 8.0467 0 0
2:15 am 02:15 Clear 37 2.7 36 2.1 96 96 N 9 15 30.12 1020 7 11.26538 0 0
2:35 am 02:35 Clear with Mist and Fog 36 2 35 1.5 97 97 N 8 13 30.12 1020 3 4.82802 0 0
2:55 am 02:55 Cloudy with Fog 34 1.1 33 0.5 96 96 N 3 6 30.12 1020 0.25 0.402335 0 0
3:15 am 03:15 Cloudy with Fog 33 0.3 32 0 98 98 N 7 11 30.13 1020 0.5 0.80467 0 0
3:35 am 03:35 Cloudy with Fog 33 0.5 32 0.1 97 97 Calm 30.13 1020 0.25 0.402335 0 0
3:55 am 03:55 Cloudy with Fog 32 0.2 32 0 99 99 Calm 30.12 1020 0.25 0.402335 0 0
4:15 am 04:15 Cloudy with Fog 32 0.2 32 0 99 99 N 5 7 30.11 1020 0.25 0.402335 0 0
4:35 am 04:35 Cloudy with Fog 32 0.2 32 0 99 99 NNW 5 7 30.11 1020 0.25 0.402335 0 0
4:55 am 04:55 Cloudy with Fog 33 0.3 32 0 98 98 N 6 9 30.11 1020 0.25 0.402335 0 0
5:15 am 05:15 Cloudy with Fog 33 0.5 32 0.2 98 98 Calm 30.11 1020 0.25 0.402335 0 0
5:35 am 05:35 Cloudy with Fog 33 0.5 32 0.2 98 98 N 3 6 30.11 1020 0.25 0.402335 0 0
5:55 am 05:55 Cloudy with Fog 33 0.5 32 0.1 97 97 Calm 30.11 1020 0.25 0.402335 0 0
6:15 am 06:15 Cloudy with Fog 33 0.3 32 0 98 98 N 3 6 30.11 1020 0.25 0.402335 0 0
6:35 am 06:35 Cloudy with Fog 32 0.2 32 0 99 99 Calm 30.11 1020 0.25 0.402335 0 0
6:55 am 06:55 Cloudy with Fog 32 0 32 0 100 100 Calm 30.11 1020 0.25 0.402335 0 0
7:15 am 07:15 Cloudy with Fog 32 0 31 -0.3 98 98 NNW 3 6 30.11 1020 0.25 0.402335 0 0
7:35 am 07:35 Cloudy with Freezing Fog 32 -0.2 31 -0.5 98 98 Calm 30.12 1020 0.25 0.402335 0 0
7:55 am 07:55 Cloudy with Freezing Fog 31 -0.5 31 -0.7 99 99 WNW 3 6 30.12 1020 0.5 0.80467 0 0
8:15 am 08:15 Cloudy with Freezing Fog 31 -0.6 31 -0.8 99 99 W 3 6 30.13 1020 0.25 0.402335 0 0
8:35 am 08:35 Cloudy with Freezing Fog 31 -0.5 31 -0.7 99 99 W 5 7 30.13 1020 0.5 0.80467 0 0
8:55 am 08:55 Mostly Cloudy 32 0 31 -0.3 98 98 W 5 7 30.11 1020 10 16.0934 0 0
9:15 am 09:15 Cloudy 33 0.5 32 0.1 97 97 W 3 6 30.11 1020 7 11.26538 0 0
9:35 am 09:35 Partly Cloudy 37 2.5 36 2.1 97 97 Calm 30.09 1019 10 16.0934 0 0
9:55 am 09:55 Sunny 41 5 40 4.7 98 98 SSW 3 6 30.07 1018 10 16.0934 0 0
10:15 am 10:15 Sunny 44 6.7 44 6.4 98 98 SW 3 6 30.05 1018 10 16.0934 0 0
10:35 am 10:35 Sunny 47 8.2 46 7.9 98 98 SW 6 9 30.04 1017 10 16.0934 0 0
10:55 am 10:55 Sunny 48 8.9 47 8.4 97 97 SW 6 9 30.03 1017 10 16.0934 0 0
11:15 am 11:15 Sunny 50 10.2 44 6.8 80 80 WSW 7 11 30.02 1017 10 16.0934 0 0
11:35 am 11:35 Sunny 53 11.4 42 5.8 69 69 SW 9 15 30 1016 10 16.0934 0 0
11:55 am 11:55 Sunny 55 12.7 42 5.3 61 61 SSW 8 13 29.98 1015 10 16.0934 0 0
12:15 pm 12:15 Sunny 55 13 41 5.1 59 59 SW 9 15 29.98 1015 10 16.0934 0 0
12:35 pm 12:35 Sunny 56 13.6 40 4.6 55 55 SW 10 17 29.95 1014 10 16.0934 0 0
12:55 pm 12:55 Sunny 58 14.5 40 4.4 51 51 SW 9 15 29.93 1014 10 16.0934 0 0
1:15 pm 13:15 Sunny 61 16.1 39 3.8 44 44 SW 13 20 29.91 1013 10 16.0934 0 0
1:35 pm 13:35 Sunny 62 16.8 37 3 40 40 SSW 13 20 29.88 1012 10 16.0934 0 0
1:55 pm 13:55 Sunny 65 18.5 35 1.4 32 32 SW 15 24 29.86 1011 10 16.0934 0 0
2:15 pm 14:15 Sunny 67 19.2 36 2 32 32 SW 16 26 29.83 1010 10 16.0934 0 0
2:35 pm 14:35 Sunny 67 19.4 35 1.5 30 30 SW 15 24 29.82 1010 10 16.0934 0 0
2:55 pm 14:55 Sunny 69 20.4 35 1.9 29 29 SW 15 24 29.78 1009 10 16.0934 0 0
3:15 pm 15:15 Sunny 69 20.7 34 1.3 28 28 SW 22 35 29.77 1008 10 16.0934 0 0
3:35 pm 15:35 Sunny 70 21.3 34 1.2 26 26 SW 17 28 29.75 1007 10 16.0934 0 0
3:55 pm 15:55 Sunny 71 21.5 33 0.7 25 25 SW 14 22 29.74 1007 10 16.0934 0 0
4:15 pm 16:15 Sunny 71 21.7 32 0.2 24 24 WSW 17 28 29.72 1007 10 16.0934 0 0
4:35 pm 16:35 Sunny 72 22.1 32 0 23 23 SW 10 17 29.71 1006 10 16.0934 0 0
4:55 pm 16:55 Sunny 71 21.5 33 0.8 25 25 SW 14 22 29.72 1006 10 16.0934 0 0
5:15 pm 17:15 Sunny 71 21.9 33 0.6 24 24 SW 13 20 29.7 1006 10 16.0934 0 0
5:35 pm 17:35 Sunny 72 22.1 33 0.6 24 24 SW 16 26 29.69 1005 10 16.0934 0 0
5:55 pm 17:55 Sunny 71 21.5 33 0.6 25 25 SW 10 17 29.7 1006 10 16.0934 0 0
6:15 pm 18:15 Sunny 69 20.4 33 0.7 27 27 SSW 13 20 29.69 1006 10 16.0934 0 0
6:35 pm 18:35 Sunny 68 20 33 0.7 28 28 SSW 15 24 29.7 1006 10 16.0934 0 0
6:55 pm 18:55 Sunny 68 20 34 0.9 28 28 SW 10 17 29.69 1005 10 16.0934 0 0
7:15 pm 19:15 Sunny 67 19.2 33 0.8 29 29 SW 13 20 29.69 1006 10 16.0934 0 0
7:35 pm 19:35 Sunny 64 17.9 35 1.4 33 33 SW 13 20 29.71 1006 10 16.0934 0 0
7:55 pm 19:55 Clear 62 16.5 35 1.6 37 37 SSW 12 19 29.71 1006 10 16.0934 0 0
8:15 pm 20:15 Clear 61 16 35 1.7 38 38 SSW 13 20 29.71 1006 10 16.0934 0 0
8:35 pm 20:35 Clear 59 14.9 35 1.8 41 41 SSW 10 17 29.72 1006 10 16.0934 0 0
8:55 pm 20:55 Clear 58 14.4 35 1.6 42 42 S 10 17 29.71 1006 10 16.0934 0 0
9:15 pm 21:15 Clear 57 13.7 35 1.8 45 45 S 12 19 29.72 1006 10 16.0934 0 0
9:35 pm 21:35 Clear 57 13.8 36 2.4 46 46 S 13 20 29.71 1006 10 16.0934 0 0
9:55 pm 21:55 Clear 54 12.4 37 2.7 52 52 S 10 17 29.72 1006 10 16.0934 0 0
10:15 pm 22:15 Clear 52 11 37 3 58 58 S 9 15 29.72 1007 10 16.0934 0 0
10:35 pm 22:35 Clear 52 11 38 3.5 60 60 S 12 19 29.71 1006 10 16.0934 0 0
10:55 pm 22:55 Clear 54 12 39 3.8 58 58 S 14 22 29.7 1006 10 16.0934 0 0
11:15 pm 23:15 Clear 55 12.5 39 3.8 56 56 S 15 24 29.68 1005 10 16.0934 0 0
11:35 pm 23:35 Clear 56 13.2 39 4 54 54 SSW 18 30 29.67 1005 10 16.0934 0 0
11:55 pm 23:55 Clear 54 12.2 39 4 58 58 S 16 26 29.68 1005 10 16.0934 0 0

Powered by AerisWeather